When you browse on this site, cookies collect data to enhance your experience and personalize the content and advertising you see.
Visit our Privacy Policy to learn more. By continuing to use the site, you agree to this use of cookies and data.
  • In Lithuania
  • List of Countries
  • For 7 days
  • Water Temperature
  • Satellite Maps
  • Weather Map
  • Weather Widgets
  • user-avatar
    Login

    Hourly Weather Graz

    Today, 22 July, Monday

    Time Temperature Precipitation Wind Pressure Humidity
    00:00 +20°C° 0 mm 1 mps 730 mmHg 87%
    01:00 +19°C° 0 mm 1 mps 730 mmHg 87%
    02:00 +19°C° 0 mm 1 mps 730 mmHg 86%
    03:00 +19°C° 0 mm 1 mps 730 mmHg 86%
    04:00 +19°C° 0 mm 1 mps 730 mmHg 85%
    05:00 +20°C° 0 mm 1 mps 730 mmHg 82%
    06:00 +22°C° 0 mm 1 mps 730 mmHg 78%
    07:00 +21°C° 0 mm 0 mps 730 mmHg 75%
    08:00 +23°C° 0 mm 0 mps 731 mmHg 67%
    09:00 +25°C° 0 mm 0 mps 731 mmHg 60%
    10:00 +27°C° 0 mm 0 mps 731 mmHg 52%
    11:00 +29°C° 0.1 mm 1 mps 731 mmHg 52%
    12:00 +29°C° 0.1 mm 1 mps 730 mmHg 53%
    13:00 +30°C° 0.1 mm 1 mps 730 mmHg 53%
    14:00 +29°C° 0.3 mm 1 mps 730 mmHg 57%
    15:00 +28°C° 0.3 mm 1 mps 730 mmHg 61%
    16:00 +28°C° 0.3 mm 1 mps 729 mmHg 65%
    17:00 +27°C° 0.2 mm 1 mps 729 mmHg 70%
    18:00 +25°C° 0.2 mm 1 mps 729 mmHg 76%
    19:00 +22°C° 0.2 mm 0 mps 729 mmHg 81%
    20:00 +23°C° 0 mm 1 mps 729 mmHg 83%
    21:00 +22°C° 0 mm 1 mps 730 mmHg 84%
    22:00 +21°C° 0 mm 1 mps 730 mmHg 86%
    23:00 +21°C° 0 mm 1 mps 730 mmHg 86%

    Tomorrow, 23 July, Tuesday

    Time Temperature Precipitation Wind Pressure Humidity
    00:00 +20°C° 0 mm 1 mps 729 mmHg 87%
    01:00 +20°C° 0 mm 1 mps 729 mmHg 88%
    02:00 +20°C° 0 mm 1 mps 729 mmHg 88%
    03:00 +19°C° 0 mm 1 mps 729 mmHg 88%
    04:00 +19°C° 0 mm 1 mps 729 mmHg 88%
    05:00 +20°C° 0 mm 1 mps 729 mmHg 86%
    06:00 +22°C° 0 mm 1 mps 729 mmHg 83%
    07:00 +23°C° 0 mm 1 mps 729 mmHg 80%
    08:00 +25°C° 0 mm 1 mps 729 mmHg 70%
    09:00 +26°C° 0 mm 0 mps 729 mmHg 59%
    10:00 +28°C° 0 mm 0 mps 730 mmHg 49%
    11:00 +31°C° 0 mm 1 mps 729 mmHg 46%
    12:00 +32°C° 0 mm 1 mps 729 mmHg 44%
    13:00 +32°C° 0 mm 1 mps 728 mmHg 42%
    14:00 +32°C° 0 mm 1 mps 728 mmHg 43%
    15:00 +32°C° 0 mm 1 mps 728 mmHg 45%
    16:00 +31°C° 0 mm 1 mps 728 mmHg 46%
    17:00 +29°C° 0 mm 1 mps 727 mmHg 56%
    18:00 +28°C° 0 mm 1 mps 727 mmHg 65%
    19:00 +26°C° 0 mm 1 mps 727 mmHg 74%
    20:00 +25°C° 0 mm 1 mps 727 mmHg 76%
    21:00 +24°C° 0 mm 1 mps 728 mmHg 79%
    22:00 +20°C° 0 mm 0 mps 728 mmHg 81%
    23:00 +20°C° 0 mm 0 mps 728 mmHg 82%

    Day after tomorrow, 24 July, Wednesday

    Time Temperature Precipitation Wind Pressure Humidity
    00:00 +19°C° 0 mm 0 mps 727 mmHg 83%
    01:00 +19°C° 0 mm 0 mps 727 mmHg 84%
    02:00 +18°C° 0 mm 0 mps 727 mmHg 85%
    03:00 +18°C° 0 mm 0 mps 727 mmHg 86%
    04:00 +18°C° 0 mm 0 mps 727 mmHg 87%
    05:00 +19°C° 0 mm 0 mps 727 mmHg 83%
    06:00 +20°C° 0 mm 0 mps 727 mmHg 78%
    07:00 +22°C° 0 mm 0 mps 727 mmHg 74%
    08:00 +24°C° 0 mm 0 mps 727 mmHg 68%
    09:00 +27°C° 0 mm 1 mps 727 mmHg 62%
    10:00 +29°C° 0 mm 1 mps 728 mmHg 56%
    11:00 +30°C° 0 mm 1 mps 727 mmHg 53%
    12:00 +31°C° 0 mm 2 mps 727 mmHg 50%
    13:00 +31°C° 0 mm 2 mps 727 mmHg 47%
    14:00 +31°C° 0 mm 2 mps 726 mmHg 47%
    15:00 +31°C° 0 mm 2 mps 726 mmHg 48%
    16:00 +31°C° 0 mm 2 mps 726 mmHg 48%
    17:00 +29°C° 0 mm 2 mps 726 mmHg 56%
    18:00 +28°C° 0 mm 1 mps 726 mmHg 64%
    19:00 +26°C° 0 mm 1 mps 726 mmHg 73%
    20:00 +25°C° 0 mm 1 mps 726 mmHg 75%
    21:00 +24°C° 0 mm 1 mps 726 mmHg 77%
    22:00 +23°C° 0 mm 1 mps 727 mmHg 80%
    23:00 +22°C° 0 mm 1 mps 727 mmHg 81%

    25 July, Thursday

    Time Temperature Precipitation Wind Pressure Humidity
    00:00 +20°C° 0 mm 0 mps 726 mmHg 82%
    01:00 +19°C° 0 mm 0 mps 726 mmHg 83%
    02:00 +19°C° 0 mm 0 mps 726 mmHg 84%
    03:00 +21°C° 0 mm 1 mps 726 mmHg 85%
    04:00 +20°C° 0 mm 1 mps 726 mmHg 86%
    05:00 +20°C° 0 mm 0 mps 726 mmHg 82%
    06:00 +21°C° 0 mm 0 mps 726 mmHg 77%
    07:00 +23°C° 0 mm 0 mps 727 mmHg 73%
    08:00 +26°C° 0 mm 1 mps 727 mmHg 67%
    09:00 +28°C° 0 mm 1 mps 727 mmHg 60%
    10:00 +30°C° 0 mm 1 mps 727 mmHg 54%
    11:00 +30°C° 0 mm 1 mps 727 mmHg 51%
    12:00 +31°C° 0 mm 2 mps 726 mmHg 49%
    13:00 +32°C° 0 mm 2 mps 726 mmHg 46%
    14:00 +32°C° 0 mm 2 mps 726 mmHg 46%
    15:00 +32°C° 0 mm 2 mps 725 mmHg 46%
    16:00 +32°C° 0 mm 2 mps 725 mmHg 45%
    17:00 +30°C° 0 mm 2 mps 725 mmHg 54%
    18:00 +28°C° 0 mm 1 mps 725 mmHg 63%
    19:00 +27°C° 0 mm 1 mps 725 mmHg 71%
    20:00 +25°C° 0 mm 1 mps 725 mmHg 74%
    21:00 +24°C° 0 mm 1 mps 725 mmHg 77%
    22:00 +21°C° 0 mm 0 mps 725 mmHg 80%
    23:00 +21°C° 0 mm 0 mps 725 mmHg 82%

    26 July, Friday

    Time Temperature Precipitation Wind Pressure Humidity
    00:00 +20°C° 0 mm 0 mps 725 mmHg 84%
    01:00 +20°C° 0 mm 0 mps 725 mmHg 86%
    02:00 +19°C° 0 mm 0 mps 724 mmHg 87%
    03:00 +19°C° 0 mm 0 mps 724 mmHg 89%
    04:00 +19°C° 0 mm 0 mps 724 mmHg 90%
    05:00 +20°C° 0 mm 0 mps 724 mmHg 86%
    06:00 +23°C° 0 mm 1 mps 724 mmHg 82%
    07:00 +24°C° 0 mm 1 mps 724 mmHg 79%
    08:00 +25°C° 0 mm 1 mps 724 mmHg 74%
    09:00 +26°C° 0 mm 1 mps 724 mmHg 69%
    10:00 +27°C° 0 mm 2 mps 724 mmHg 65%
    11:00 +28°C° 0 mm 2 mps 724 mmHg 63%
    12:00 +28°C° 0 mm 2 mps 724 mmHg 61%
    13:00 +29°C° 0 mm 2 mps 723 mmHg 59%
    14:00 +29°C° 0 mm 2 mps 723 mmHg 60%
    15:00 +28°C° 0 mm 2 mps 723 mmHg 61%
    16:00 +28°C° 0 mm 2 mps 722 mmHg 62%
    17:00 +27°C° 0 mm 1 mps 722 mmHg 66%
    18:00 +27°C° 0 mm 1 mps 722 mmHg 70%
    19:00 +26°C° 0 mm 1 mps 722 mmHg 75%
    20:00 +25°C° 0 mm 1 mps 722 mmHg 76%
    21:00 +22°C° 0 mm 0 mps 722 mmHg 77%
    22:00 +21°C° 0 mm 0 mps 722 mmHg 78%
    23:00 +21°C° 0 mm 0 mps 722 mmHg 79%

    27 July, Saturday

    Time Temperature Precipitation Wind Pressure Humidity
    00:00 +20°C° 0 mm 0 mps 722 mmHg 79%
    01:00 +20°C° 0 mm 0 mps 722 mmHg 80%
    02:00 +20°C° 0 mm 0 mps 722 mmHg 79%
    03:00 +20°C° 0 mm 0 mps 722 mmHg 79%
    04:00 +20°C° 0 mm 0 mps 722 mmHg 78%
    05:00 +20°C° 0 mm 0 mps 722 mmHg 76%
    06:00 +21°C° 0 mm 0 mps 722 mmHg 74%
    07:00 +22°C° 0 mm 0 mps 722 mmHg 72%
    08:00 +25°C° 0 mm 1 mps 722 mmHg 66%
    09:00 +27°C° 0 mm 1 mps 723 mmHg 61%
    10:00 +28°C° 0 mm 1 mps 723 mmHg 56%
    11:00 +29°C° 0 mm 1 mps 723 mmHg 55%
    12:00 +29°C° 0 mm 2 mps 722 mmHg 54%
    13:00 +30°C° 0 mm 2 mps 722 mmHg 52%
    14:00 +30°C° 0 mm 2 mps 722 mmHg 52%
    15:00 +30°C° 0 mm 2 mps 722 mmHg 51%
    16:00 +30°C° 0 mm 2 mps 721 mmHg 51%
    17:00 +29°C° 0.1 mm 1 mps 721 mmHg 58%
    18:00 +27°C° 0.1 mm 1 mps 721 mmHg 65%
    19:00 +26°C° 0.1 mm 1 mps 721 mmHg 71%
    20:00 +25°C° 0.1 mm 1 mps 721 mmHg 73%
    21:00 +22°C° 0.1 mm 0 mps 721 mmHg 75%
    22:00 +21°C° 0.1 mm 0 mps 721 mmHg 76%
    23:00 +23°C° 0.3 mm 1 mps 722 mmHg 78%
    Show more